Location: Poprad
(49.0500°N, 20.3000°E)
Time: 01:00:31
(UTC+02:00)

PCSat - Pass Details

Date: 28 April 2024
Orbit: 783 x 792 km, 67.1° (Epoch: 24 May)

Event Time Altitude Azimuth Distance (km) Brightness Sun altitude
Rises 21:28:36 0° 285° (WNW) 3,287 13.9 -14.2°
Reaches altitude 10° 21:32:17 10° 311° (NW) 2,362 13.5 -14.6°
Maximum altitude 21:35:05 14° 342° (NNW) 2,090 12.7 -14.9°
Drops below altitude 10° 21:37:54 10° 14° (NNE) 2,367 12.5 -15.2°
Sets 21:41:36 0° 39° (NE) 3,300 12.9 -15.7°
